Location: Fort Wayne
(41.1310°N, 85.1290°W)
Time: 16:06:00
(UTC-04:00)

Iridium 37 - Visible Passes

Search period start: 29 June 2016 00:00
Search period end: 09 July 2016 00:00
Orbit: 776 x 779 km, 86.4° (Epoch: 29 June)

Date Brightness Start Highest point End Pass type
(mag) Time Alt. Az. Time Alt. Az. Time Alt. Az.
29 Jun 5.4 01:51:08 10° N 01:56:22 79° E 01:56:44 74° SE visible
29 Jun 7.7 03:34:36 10° WNW 03:36:19 12° WNW 03:37:12 11° W visible
30 Jun 6.2 01:17:48 10° N 01:22:46 43° E 01:23:14 42° E visible
30 Jun 7.1 02:59:16 10° NNW 03:03:09 22° W 03:03:41 21° W visible
01 Jul 7.0 00:44:52 10° NNE 00:49:02 24° ENE 00:49:43 23° E visible
01 Jul 6.3 02:25:03 10° NNW 02:29:52 39° W 02:30:11 38° W visible
02 Jul 7.6 00:12:45 10° NE 00:15:10 13° ENE 00:16:14 12° E visible
02 Jul 5.4 01:51:15 10° N 01:56:28 72° W 01:56:42 71° WSW visible
03 Jul 5.6 01:17:45 10° N 01:22:56 62° E 01:23:12 61° ESE visible
03 Jul 7.5 03:00:10 10° NW 03:03:03 15° WNW 03:03:40 15° W visible
04 Jul 6.5 00:44:33 10° NNE 00:49:17 34° E 00:49:43 33° E visible
04 Jul 6.8 02:25:30 10° NNW 02:29:50 27° W 02:30:11 27° W visible
05 Jul 7.2 00:11:50 10° NNE 00:15:29 19° ENE 00:16:15 18° E visible
05 Jul 5.9 01:51:28 10° NNW 01:56:30 49° W 01:56:43 49° W visible
06 Jul 5.3 01:17:47 10° N 01:23:03 89° E 01:23:14 83° S visible
07 Jul 5.9 00:44:24 10° N 00:49:28 48° E 00:49:47 48° E visible
07 Jul 7.3 02:26:09 10° NW 02:29:45 19° W 02:30:15 19° W visible
08 Jul 6.8 00:11:22 10° NNE 00:15:46 27° ENE 00:16:19 26° E visible
08 Jul 6.5 01:51:49 10° NNW 01:56:29 34° W 01:56:47 34° W visible
08 Jul 7.4 23:38:58 10° NE 23:41:55 15° ENE 23:42:52 14° E visible
